Time,TemperatureF,DewpointF,PressureIn,WindDirection,WindDirectionDegrees,WindSpeedMPH,WindSpeedGustMPH,Humidity,HourlyPrecipIn,Conditions,Clouds,dailyrainin,SoftwareType,DateUTC
2013-01-04 00:00:00,30.2,21.6,30.14,SW,236,0.0,4.0,70,0.00,,,0.00,meteohub,2013-01-04 05:00:00,
2013-01-04 00:02:00,30.2,21.6,30.14,SW,236,0.0,4.0,70,0.00,,,0.00,meteohub,2013-01-04 05:02:00,
2013-01-04 00:12:00,30.0,21.4,30.14,SW,236,2.0,3.0,70,0.00,,,0.00,meteohub,2013-01-04 05:12:00,
2013-01-04 00:15:00,29.8,21.6,30.14,SW,236,0.0,3.0,71,0.00,,,0.00,meteohub,2013-01-04 05:15:00,
2013-01-04 00:20:00,29.8,21.6,30.14,SW,236,0.0,3.0,71,0.00,,,0.00,meteohub,2013-01-04 05:20:00,
2013-01-04 00:25:00,29.8,21.6,30.14,WSW,256,1.0,5.0,71,0.00,,,0.00,meteohub,2013-01-04 05:25:00,
2013-01-04 00:30:00,29.8,21.6,30.14,WSW,257,2.0,5.0,71,0.00,,,0.00,meteohub,2013-01-04 05:30:00,
2013-01-04 00:35:00,29.8,21.6,30.14,WSW,256,0.0,5.0,71,0.00,,,0.00,meteohub,2013-01-04 05:35:00,
2013-01-04 00:40:00,29.7,21.4,30.14,WSW,256,0.0,2.0,71,0.00,,,0.00,meteohub,2013-01-04 05:40:00,
2013-01-04 00:45:00,29.7,21.7,30.14,WSW,257,1.0,2.0,72,0.00,,,0.00,meteohub,2013-01-04 05:45:00,
2013-01-04 00:50:00,29.7,21.4,30.14,WSW,256,0.0,3.0,71,0.00,,,0.00,meteohub,2013-01-04 05:50:00,
2013-01-04 00:55:00,29.7,21.4,30.14,WSW,256,0.0,3.0,71,0.00,,,0.00,meteohub,2013-01-04 05:55:00,
2013-01-04 01:00:00,29.7,21.7,30.14,WSW,257,0.0,3.0,72,0.00,,,0.00,meteohub,2013-01-04 06:00:00,
2013-01-04 01:05:00,29.5,21.6,30.14,WSW,257,0.0,2.0,72,0.00,,,0.00,meteohub,2013-01-04 06:05:00,
2013-01-04 01:10:00,29.7,21.7,30.14,WSW,256,1.0,2.0,72,0.00,,,0.00,meteohub,2013-01-04 06:10:00,
2013-01-04 01:15:00,29.7,21.7,30.14,WSW,257,2.0,2.0,72,0.00,,,0.00,meteohub,2013-01-04 06:15:00,
2013-01-04 01:20:00,29.7,21.7,30.14,WSW,256,1.0,3.0,72,0.00,,,0.00,meteohub,2013-01-04 06:20:00,
2013-01-04 01:25:00,29.8,21.9,30.14,WSW,256,2.0,3.0,72,0.00,,,0.00,meteohub,2013-01-04 06:25:00,
2013-01-04 01:30:00,30.0,22.1,30.14,WSW,257,1.0,3.0,72,0.00,,,0.00,meteohub,2013-01-04 06:30:00,
2013-01-04 01:35:00,30.2,22.3,30.14,WSW,254,1.0,4.0,72,0.00,,,0.00,meteohub,2013-01-04 06:35:00,
2013-01-04 01:40:00,30.6,22.3,30.14,SW,232,1.0,5.0,71,0.00,,,0.00,meteohub,2013-01-04 06:40:00,
2013-01-04 01:45:00,30.7,22.1,30.14,WSW,255,3.0,5.0,70,0.00,,,0.00,meteohub,2013-01-04 06:45:00,
2013-01-04 01:50:00,30.9,22.3,30.14,West,269,0.0,5.0,70,0.00,,,0.00,meteohub,2013-01-04 06:50:00,
2013-01-04 01:55:00,30.9,22.3,30.14,West,267,3.0,5.0,70,0.00,,,0.00,meteohub,2013-01-04 06:55:00,
2013-01-04 02:00:00,31.1,22.5,30.14,West,266,2.0,6.0,70,0.00,,,0.00,meteohub,2013-01-04 07:00:00,
2013-01-04 02:06:00,31.3,22.3,30.14,WSW,252,3.0,6.0,69,0.00,,,0.00,meteohub,2013-01-04 07:06:00,
2013-01-04 02:11:00,31.3,22.3,30.15,WSW,257,2.0,6.0,69,0.00,,,0.00,meteohub,2013-01-04 07:11:00,
2013-01-04 02:16:00,31.3,22.3,30.14,WSW,237,4.0,6.0,69,0.00,,,0.00,meteohub,2013-01-04 07:16:00,
2013-01-04 02:21:00,31.1,22.5,30.14,WSW,246,3.0,6.0,70,0.00,,,0.00,meteohub,2013-01-04 07:21:00,
2013-01-04 02:26:00,31.3,22.3,30.15,WSW,253,2.0,7.0,69,0.00,,,0.00,meteohub,2013-01-04 07:26:00,
2013-01-04 02:31:00,31.3,22.3,30.14,WNW,283,3.0,9.0,69,0.00,,,0.00,meteohub,2013-01-04 07:31:00,
2013-01-04 02:36:00,31.5,22.5,30.15,West,263,3.0,9.0,69,0.00,,,0.00,meteohub,2013-01-04 07:36:00,
2013-01-04 02:41:00,31.5,22.5,30.15,West,280,4.0,9.0,69,0.00,,,0.00,meteohub,2013-01-04 07:41:00,
2013-01-04 02:46:00,31.3,22.3,30.15,West,273,5.0,5.0,69,0.00,,,0.00,meteohub,2013-01-04 07:46:00,
2013-01-04 02:51:00,31.3,22.3,30.15,West,269,4.0,7.0,69,0.00,,,0.00,meteohub,2013-01-04 07:51:00,
2013-01-04 02:56:00,31.1,22.1,30.15,West,268,4.0,7.0,69,0.00,,,0.00,meteohub,2013-01-04 07:56:00,
2013-01-04 03:01:00,31.1,22.1,30.15,West,268,4.0,7.0,69,0.00,,,0.00,meteohub,2013-01-04 08:01:00,
2013-01-04 03:06:00,31.1,22.5,30.15,WSW,257,3.0,6.0,70,0.00,,,0.00,meteohub,2013-01-04 08:06:00,
2013-01-04 03:11:00,31.1,22.5,30.15,WSW,254,2.0,6.0,70,0.00,,,0.00,meteohub,2013-01-04 08:11:00,
2013-01-04 03:16:00,30.9,22.3,30.15,SW,233,3.0,5.0,70,0.00,,,0.00,meteohub,2013-01-04 08:16:00,
2013-01-04 03:21:00,30.9,22.3,30.15,SW,231,0.0,5.0,70,0.00,,,0.00,meteohub,2013-01-04 08:21:00,
2013-01-04 03:26:00,30.7,22.5,30.15,SW,233,1.0,4.0,71,0.00,,,0.00,meteohub,2013-01-04 08:26:00,
2013-01-04 03:31:00,30.6,22.3,30.15,West,265,2.0,4.0,71,0.00,,,0.00,meteohub,2013-01-04 08:31:00,
2013-01-04 03:36:00,30.6,22.3,30.15,West,266,1.0,4.0,71,0.00,,,0.00,meteohub,2013-01-04 08:36:00,
2013-01-04 03:41:00,30.6,22.3,30.14,West,273,0.0,4.0,71,0.00,,,0.00,meteohub,2013-01-04 08:41:00,
2013-01-04 03:46:00,30.6,22.6,30.14,West,271,2.0,4.0,72,0.00,,,0.00,meteohub,2013-01-04 08:46:00,
2013-01-04 03:51:00,30.6,22.6,30.14,West,271,1.0,4.0,72,0.00,,,0.00,meteohub,2013-01-04 08:51:00,
2013-01-04 03:56:00,30.6,22.6,30.15,West,277,2.0,6.0,72,0.00,,,0.00,meteohub,2013-01-04 08:56:00,
2013-01-04 04:01:00,30.7,22.8,30.14,SW,235,2.0,6.0,72,0.00,,,0.00,meteohub,2013-01-04 09:01:00,
2013-01-04 04:06:00,30.7,22.8,30.15,WSW,253,2.0,6.0,72,0.00,,,0.00,meteohub,2013-01-04 09:06:00,
2013-01-04 04:11:00,30.7,22.5,30.14,WNW,282,2.0,7.0,71,0.00,,,0.00,meteohub,2013-01-04 09:11:00,
2013-01-04 04:16:00,30.9,22.6,30.14,West,273,3.0,7.0,71,0.00,,,0.00,meteohub,2013-01-04 09:16:00,
2013-01-04 04:21:00,30.9,22.6,30.14,West,267,4.0,7.0,71,0.00,,,0.00,meteohub,2013-01-04 09:21:00,
2013-01-04 04:26:00,30.9,22.6,30.14,West,276,2.0,10.0,71,0.00,,,0.00,meteohub,2013-01-04 09:26:00,
2013-01-04 04:31:00,31.1,22.5,30.14,West,263,5.0,10.0,70,0.00,,,0.00,meteohub,2013-01-04 09:31:00,
2013-01-04 04:36:00,31.1,22.5,30.14,WNW,292,5.0,10.0,70,0.00,,,0.00,meteohub,2013-01-04 09:36:00,
2013-01-04 04:41:00,31.1,22.5,30.14,West,265,6.0,9.0,70,0.00,,,0.00,meteohub,2013-01-04 09:41:00,
2013-01-04 04:46:00,31.1,22.5,30.15,West,278,5.0,9.0,70,0.00,,,0.00,meteohub,2013-01-04 09:46:00,
2013-01-04 04:51:00,30.9,22.3,30.14,West,271,4.0,9.0,70,0.00,,,0.00,meteohub,2013-01-04 09:51:00,
2013-01-04 04:56:00,30.9,22.3,30.14,West,262,0.0,9.0,70,0.00,,,0.00,meteohub,2013-01-04 09:56:00,
2013-01-04 05:02:00,30.9,22.3,30.14,WSW,238,2.0,8.0,70,0.00,,,0.00,meteohub,2013-01-04 10:02:00,
2013-01-04 05:06:00,30.9,21.9,30.14,West,259,1.0,8.0,69,0.00,,,0.00,meteohub,2013-01-04 10:06:00,
2013-01-04 05:12:00,30.9,21.9,30.15,West,259,4.0,8.0,69,0.00,,,0.00,meteohub,2013-01-04 10:12:00,
2013-01-04 05:17:00,30.9,22.3,30.14,West,271,4.0,7.0,70,0.00,,,0.00,meteohub,2013-01-04 10:17:00,
2013-01-04 05:22:00,30.9,21.9,30.14,West,265,5.0,7.0,69,0.00,,,0.00,meteohub,2013-01-04 10:22:00,
2013-01-04 05:27:00,30.9,21.9,30.14,SW,236,2.0,7.0,69,0.00,,,0.00,meteohub,2013-01-04 10:27:00,
2013-01-04 05:32:00,30.9,21.9,30.14,WSW,245,5.0,8.0,69,0.00,,,0.00,meteohub,2013-01-04 10:32:00,
2013-01-04 05:37:00,30.9,21.9,30.14,West,280,5.0,8.0,69,0.00,,,0.00,meteohub,2013-01-04 10:37:00,
2013-01-04 05:42:00,30.9,21.9,30.14,West,268,6.0,9.0,69,0.00,,,0.00,meteohub,2013-01-04 10:42:00,
2013-01-04 05:47:00,30.9,22.3,30.14,West,273,6.0,9.0,70,0.00,,,0.00,meteohub,2013-01-04 10:47:00,
2013-01-04 05:52:00,30.7,22.1,30.15,West,264,4.0,9.0,70,0.00,,,0.00,meteohub,2013-01-04 10:52:00,
2013-01-04 05:57:00,30.7,22.1,30.15,SSW,210,6.0,9.0,70,0.00,,,0.00,meteohub,2013-01-04 10:57:00,
2013-01-04 06:02:00,30.7,22.1,30.15,West,269,6.0,7.0,70,0.00,,,0.00,meteohub,2013-01-04 11:02:00,
2013-01-04 06:07:00,30.7,22.1,30.15,West,261,4.0,7.0,70,0.00,,,0.00,meteohub,2013-01-04 11:07:00,
2013-01-04 06:12:00,30.7,22.1,30.15,West,281,3.0,7.0,70,0.00,,,0.00,meteohub,2013-01-04 11:12:00,
2013-01-04 06:17:00,30.7,22.1,30.15,WSW,256,3.0,7.0,70,0.00,,,0.00,meteohub,2013-01-04 11:17:00,
2013-01-04 06:22:00,30.7,22.1,30.15,West,280,4.0,9.0,70,0.00,,,0.00,meteohub,2013-01-04 11:22:00,
2013-01-04 06:27:00,30.7,22.5,30.15,WSW,257,2.0,9.0,71,0.00,,,0.00,meteohub,2013-01-04 11:27:00,
2013-01-04 06:32:00,30.6,22.3,30.15,West,281,4.0,9.0,71,0.00,,,0.00,meteohub,2013-01-04 11:32:00,
2013-01-04 06:37:00,30.6,22.3,30.15,West,269,2.0,6.0,71,0.00,,,0.00,meteohub,2013-01-04 11:37:00,
2013-01-04 06:42:00,30.6,22.3,30.15,West,274,4.0,6.0,71,0.00,,,0.00,meteohub,2013-01-04 11:42:00,
2013-01-04 06:47:00,30.6,22.3,30.15,West,272,2.0,7.0,71,0.00,,,0.00,meteohub,2013-01-04 11:47:00,
2013-01-04 06:52:00,30.6,22.3,30.15,WSW,257,3.0,7.0,71,0.00,,,0.00,meteohub,2013-01-04 11:52:00,
2013-01-04 06:57:00,30.6,22.3,30.15,West,271,5.0,7.0,71,0.00,,,0.00,meteohub,2013-01-04 11:57:00,
2013-01-04 07:02:00,30.6,22.6,30.15,West,275,5.0,7.0,72,0.00,,,0.00,meteohub,2013-01-04 12:02:00,
2013-01-04 07:07:00,30.6,22.6,30.15,West,276,6.0,7.0,72,0.00,,,0.00,meteohub,2013-01-04 12:07:00,
2013-01-04 07:12:00,30.6,22.6,30.15,West,264,8.0,9.0,72,0.00,,,0.00,meteohub,2013-01-04 12:12:00,
2013-01-04 07:17:00,30.6,22.3,30.15,West,266,4.0,9.0,71,0.00,,,0.00,meteohub,2013-01-04 12:17:00,
2013-01-04 07:22:00,30.6,22.6,30.15,West,272,4.0,10.0,72,0.00,,,0.00,meteohub,2013-01-04 12:22:00,
2013-01-04 07:27:00,30.6,22.6,30.14,West,259,2.0,10.0,72,0.00,,,0.00,meteohub,2013-01-04 12:27:00,
2013-01-04 07:32:00,30.6,22.6,30.14,West,267,4.0,10.0,72,0.00,,,0.00,meteohub,2013-01-04 12:32:00,
2013-01-04 07:37:00,30.6,22.6,30.14,West,273,3.0,8.0,72,0.00,,,0.00,meteohub,2013-01-04 12:37:00,
2013-01-04 07:42:00,30.4,22.5,30.14,WSW,244,3.0,8.0,72,0.00,,,0.00,meteohub,2013-01-04 12:42:00,
2013-01-04 07:47:00,30.6,22.6,30.14,WNW,283,6.0,8.0,72,0.00,,,0.00,meteohub,2013-01-04 12:47:00,
2013-01-04 07:52:00,30.6,22.6,30.14,West,260,3.0,8.0,72,0.00,,,0.00,meteohub,2013-01-04 12:52:00,
2013-01-04 07:57:00,30.6,22.6,30.14,WSW,257,3.0,10.0,72,0.00,,,0.00,meteohub,2013-01-04 12:57:00,
2013-01-04 08:02:00,30.6,22.6,30.14,West,276,3.0,10.0,72,0.00,,,0.00,meteohub,2013-01-04 13:02:00,
2013-01-04 08:07:00,30.6,22.6,30.14,West,272,1.0,10.0,72,0.00,,,0.00,meteohub,2013-01-04 13:07:00,
2013-01-04 08:12:00,30.6,22.6,30.14,SW,234,2.0,10.0,72,0.00,,,0.00,meteohub,2013-01-04 13:12:00,
2013-01-04 08:17:00,30.6,22.6,30.14,West,267,5.0,6.0,72,0.00,,,0.00,meteohub,2013-01-04 13:17:00,
2013-01-04 08:22:00,30.6,22.6,30.14,West,279,3.0,7.0,72,0.00,,,0.00,meteohub,2013-01-04 13:22:00,
2013-01-04 08:27:00,30.7,22.8,30.14,WSW,248,5.0,9.0,72,0.00,,,0.00,meteohub,2013-01-04 13:27:00,
2013-01-04 08:32:00,30.7,22.8,30.14,WSW,256,4.0,9.0,72,0.00,,,0.00,meteohub,2013-01-04 13:32:00,
2013-01-04 08:37:00,30.7,22.5,30.15,West,275,2.0,9.0,71,0.00,,,0.00,meteohub,2013-01-04 13:37:00,
2013-01-04 08:42:00,30.7,22.5,30.15,WSW,253,2.0,9.0,71,0.00,,,0.00,meteohub,2013-01-04 13:42:00,
2013-01-04 08:47:00,30.7,22.5,30.15,WSW,256,4.0,9.0,71,0.00,,,0.00,meteohub,2013-01-04 13:47:00,
2013-01-04 08:52:00,30.9,22.6,30.15,WSW,238,4.0,9.0,71,0.00,,,0.00,meteohub,2013-01-04 13:52:00,
2013-01-04 08:57:00,30.9,22.6,30.15,WNW,285,8.0,10.0,71,0.00,,,0.00,meteohub,2013-01-04 13:57:00,
2013-01-04 09:02:00,30.9,22.3,30.15,West,268,3.0,10.0,70,0.00,,,0.00,meteohub,2013-01-04 14:02:00,
2013-01-04 09:07:00,30.9,22.6,30.15,West,274,5.0,10.0,71,0.00,,,0.00,meteohub,2013-01-04 14:07:00,
2013-01-04 09:12:00,31.1,22.8,30.15,WNW,283,2.0,9.0,71,0.00,,,0.00,meteohub,2013-01-04 14:12:00,
2013-01-04 09:17:00,31.1,22.5,30.15,West,281,5.0,10.0,70,0.00,,,0.00,meteohub,2013-01-04 14:17:00,
2013-01-04 09:23:00,31.3,22.6,30.16,WNW,298,2.0,10.0,70,0.00,,,0.00,meteohub,2013-01-04 14:23:00,
2013-01-04 09:28:00,31.3,22.6,30.16,WSW,254,4.0,10.0,70,0.00,,,0.00,meteohub,2013-01-04 14:28:00,
2013-01-04 09:33:00,31.3,22.6,30.16,West,279,5.0,10.0,70,0.00,,,0.00,meteohub,2013-01-04 14:33:00,
2013-01-04 09:38:00,31.3,22.6,30.16,West,259,8.0,10.0,70,0.00,,,0.00,meteohub,2013-01-04 14:38:00,
2013-01-04 09:43:00,31.3,22.6,30.16,West,275,5.0,15.0,70,0.00,,,0.00,meteohub,2013-01-04 14:43:00,
2013-01-04 09:48:00,31.3,23.0,30.16,West,277,7.0,15.0,71,0.00,,,0.00,meteohub,2013-01-04 14:48:00,
2013-01-04 09:53:00,31.3,23.0,30.16,WNW,292,2.0,15.0,71,0.00,,,0.00,meteohub,2013-01-04 14:53:00,
2013-01-04 09:58:00,31.5,23.5,30.16,West,266,6.0,11.0,72,0.00,,,0.00,meteohub,2013-01-04 14:58:00,
2013-01-04 10:03:00,31.5,23.5,30.16,West,273,4.0,11.0,72,0.00,,,0.00,meteohub,2013-01-04 15:03:00,
2013-01-04 10:08:00,31.5,23.2,30.16,West,260,3.0,10.0,71,0.00,,,0.00,meteohub,2013-01-04 15:08:00,
2013-01-04 10:13:00,31.5,23.5,30.15,WNW,288,4.0,10.0,72,0.00,,,0.00,meteohub,2013-01-04 15:13:00,
2013-01-04 10:18:00,31.5,23.5,30.16,West,273,3.0,10.0,72,0.00,,,0.00,meteohub,2013-01-04 15:18:00,
2013-01-04 10:23:00,31.5,23.5,30.16,SW,234,3.0,11.0,72,0.00,,,0.00,meteohub,2013-01-04 15:23:00,
2013-01-04 10:28:00,31.8,24.1,30.15,West,277,5.0,11.0,73,0.00,,,0.00,meteohub,2013-01-04 15:28:00,
2013-01-04 10:33:00,31.8,23.9,30.15,WSW,251,8.0,11.0,72,0.00,,,0.00,meteohub,2013-01-04 15:33:00,
2013-01-04 10:38:00,31.8,23.9,30.15,WSW,242,8.0,9.0,72,0.00,,,0.00,meteohub,2013-01-04 15:38:00,
2013-01-04 10:43:00,31.8,23.5,30.15,WSW,258,6.0,12.0,71,0.00,,,0.00,meteohub,2013-01-04 15:43:00,
2013-01-04 10:48:00,31.8,23.9,30.15,West,279,8.0,14.0,72,0.00,,,0.00,meteohub,2013-01-04 15:48:00,
2013-01-04 10:53:00,31.8,23.5,30.14,WSW,245,3.0,14.0,71,0.00,,,0.00,meteohub,2013-01-04 15:53:00,
2013-01-04 10:58:00,31.8,23.5,30.14,WNW,292,4.0,14.0,71,0.00,,,0.00,meteohub,2013-01-04 15:58:00,
2013-01-04 11:03:00,31.8,23.5,30.14,West,281,6.0,10.0,71,0.00,,,0.00,meteohub,2013-01-04 16:03:00,
2013-01-04 11:08:00,32.2,23.9,30.14,WNW,292,4.0,10.0,71,0.00,,,0.00,meteohub,2013-01-04 16:08:00,
2013-01-04 11:13:00,32.2,23.5,30.14,WNW,282,2.0,10.0,70,0.00,,,0.00,meteohub,2013-01-04 16:13:00,
2013-01-04 11:18:00,32.2,23.9,30.14,West,271,6.0,10.0,71,0.00,,,0.00,meteohub,2013-01-04 16:18:00,
2013-01-04 11:23:00,32.4,23.7,30.13,WNW,284,4.0,10.0,70,0.00,,,0.00,meteohub,2013-01-04 16:23:00,
2013-01-04 11:28:00,32.4,23.7,30.13,WNW,286,4.0,10.0,70,0.00,,,0.00,meteohub,2013-01-04 16:28:00,
2013-01-04 11:33:00,32.5,23.5,30.13,WNW,298,3.0,10.0,69,0.00,,,0.00,meteohub,2013-01-04 16:33:00,
2013-01-04 11:38:00,32.5,23.5,30.13,West,277,9.0,10.0,69,0.00,,,0.00,meteohub,2013-01-04 16:38:00,
2013-01-04 11:43:00,32.5,23.5,30.13,West,279,4.0,11.0,69,0.00,,,0.00,meteohub,2013-01-04 16:43:00,
2013-01-04 11:48:00,32.5,23.5,30.12,West,279,7.0,12.0,69,0.00,,,0.00,meteohub,2013-01-04 16:48:00,
2013-01-04 11:53:00,32.5,23.2,30.12,WNW,296,5.0,12.0,68,0.00,,,0.00,meteohub,2013-01-04 16:53:00,
2013-01-04 11:58:00,32.7,23.7,30.12,West,271,3.0,12.0,69,0.00,,,0.00,meteohub,2013-01-04 16:58:00,
2013-01-04 12:03:00,32.7,23.4,30.12,WNW,293,6.0,10.0,68,0.00,,,0.00,meteohub,2013-01-04 17:03:00,
2013-01-04 12:08:00,32.9,23.5,30.12,West,269,6.0,12.0,68,0.00,,,0.00,meteohub,2013-01-04 17:08:00,
2013-01-04 12:13:00,32.7,23.4,30.11,West,270,6.0,12.0,68,0.00,,,0.00,meteohub,2013-01-04 17:13:00,
2013-01-04 12:18:00,32.7,23.4,30.11,SW,236,6.0,13.0,68,0.00,,,0.00,meteohub,2013-01-04 17:18:00,
2013-01-04 12:23:00,32.9,23.9,30.10,SW,226,5.0,14.0,69,0.00,,,0.00,meteohub,2013-01-04 17:23:00,
2013-01-04 12:28:00,33.1,24.1,30.10,West,272,4.0,14.0,69,0.00,,,0.00,meteohub,2013-01-04 17:28:00,
2013-01-04 12:33:00,33.1,23.7,30.10,West,273,8.0,14.0,68,0.00,,,0.00,meteohub,2013-01-04 17:33:00,
2013-01-04 12:38:00,33.3,24.6,30.09,West,267,9.0,14.0,70,0.00,,,0.00,meteohub,2013-01-04 17:38:00,
2013-01-04 12:43:00,34.3,24.8,30.09,WNW,284,6.0,14.0,68,0.00,,,0.00,meteohub,2013-01-04 17:43:00,
2013-01-04 12:49:00,34.3,24.1,30.09,WNW,296,4.0,12.0,66,0.00,,,0.00,meteohub,2013-01-04 17:49:00,
2013-01-04 12:54:00,34.0,23.9,30.09,WNW,289,7.0,14.0,66,0.00,,,0.00,meteohub,2013-01-04 17:54:00,
2013-01-04 12:59:00,33.6,23.9,30.08,WNW,285,11.0,14.0,67,0.00,,,0.00,meteohub,2013-01-04 17:59:00,
2013-01-04 13:04:00,34.2,24.6,30.08,West,259,6.0,14.0,68,0.00,,,0.00,meteohub,2013-01-04 18:04:00,
2013-01-04 13:09:00,34.3,24.4,30.08,West,259,8.0,13.0,67,0.00,,,0.00,meteohub,2013-01-04 18:09:00,
2013-01-04 13:14:00,34.3,24.1,30.08,WNW,288,6.0,13.0,66,0.00,,,0.00,meteohub,2013-01-04 18:14:00,
2013-01-04 13:19:00,34.3,24.4,30.07,NW,304,3.0,13.0,67,0.00,,,0.00,meteohub,2013-01-04 18:19:00,
2013-01-04 13:24:00,35.2,25.0,30.07,WSW,250,3.0,13.0,66,0.00,,,0.00,meteohub,2013-01-04 18:24:00,
2013-01-04 13:29:00,35.2,25.0,30.07,West,275,4.0,13.0,66,0.00,,,0.00,meteohub,2013-01-04 18:29:00,
2013-01-04 13:34:00,35.1,24.4,30.06,WSW,257,6.0,8.0,65,0.00,,,0.00,meteohub,2013-01-04 18:34:00,
2013-01-04 13:39:00,34.5,23.9,30.06,WNW,297,4.0,11.0,65,0.00,,,0.00,meteohub,2013-01-04 18:39:00,
2013-01-04 13:44:00,34.5,24.3,30.06,West,263,7.0,12.0,66,0.00,,,0.00,meteohub,2013-01-04 18:44:00,
2013-01-04 13:49:00,35.1,24.8,30.06,WNW,291,6.0,12.0,66,0.00,,,0.00,meteohub,2013-01-04 18:49:00,
2013-01-04 13:54:00,35.4,24.8,30.06,WNW,282,6.0,12.0,65,0.00,,,0.00,meteohub,2013-01-04 18:54:00,
2013-01-04 13:59:00,35.6,24.6,30.06,WNW,291,6.0,10.0,64,0.00,,,0.00,meteohub,2013-01-04 18:59:00,
2013-01-04 14:04:00,35.8,24.8,30.06,WSW,255,6.0,12.0,64,0.00,,,0.00,meteohub,2013-01-04 19:04:00,
2013-01-04 14:09:00,35.8,24.4,30.05,West,269,4.0,12.0,63,0.00,,,0.00,meteohub,2013-01-04 19:09:00,
2013-01-04 14:14:00,35.6,24.6,30.05,WSW,241,6.0,13.0,64,0.00,,,0.00,meteohub,2013-01-04 19:14:00,
2013-01-04 14:19:00,35.6,24.6,30.05,WSW,248,8.0,13.0,64,0.00,,,0.00,meteohub,2013-01-04 19:19:00,
2013-01-04 14:24:00,35.4,24.4,30.05,West,265,5.0,13.0,64,0.00,,,0.00,meteohub,2013-01-04 19:24:00,
2013-01-04 14:29:00,35.6,24.6,30.05,West,266,4.0,12.0,64,0.00,,,0.00,meteohub,2013-01-04 19:29:00,
2013-01-04 14:34:00,36.0,25.0,30.05,West,265,8.0,12.0,64,0.00,,,0.00,meteohub,2013-01-04 19:34:00,
2013-01-04 14:39:00,36.0,24.6,30.05,West,269,4.0,12.0,63,0.00,,,0.00,meteohub,2013-01-04 19:39:00,
2013-01-04 14:44:00,36.0,25.0,30.05,WSW,247,6.0,12.0,64,0.00,,,0.00,meteohub,2013-01-04 19:44:00,
2013-01-04 14:49:00,36.0,25.0,30.05,SW,229,6.0,13.0,64,0.00,,,0.00,meteohub,2013-01-04 19:49:00,
2013-01-04 14:54:00,36.1,24.8,30.05,West,269,4.0,13.0,63,0.00,,,0.00,meteohub,2013-01-04 19:54:00,
2013-01-04 14:59:00,36.1,24.8,30.05,WSW,253,7.0,13.0,63,0.00,,,0.00,meteohub,2013-01-04 19:59:00,
2013-01-04 15:04:00,36.1,24.8,30.05,West,261,4.0,12.0,63,0.00,,,0.00,meteohub,2013-01-04 20:04:00,
2013-01-04 15:09:00,36.1,24.8,30.05,WSW,248,8.0,14.0,63,0.00,,,0.00,meteohub,2013-01-04 20:09:00,
2013-01-04 15:14:00,36.0,24.6,30.05,West,264,7.0,14.0,63,0.00,,,0.00,meteohub,2013-01-04 20:14:00,
2013-01-04 15:19:00,36.0,24.6,30.05,West,265,5.0,14.0,63,0.00,,,0.00,meteohub,2013-01-04 20:19:00,
2013-01-04 15:24:00,36.0,24.6,30.06,WSW,240,3.0,12.0,63,0.00,,,0.00,meteohub,2013-01-04 20:24:00,
2013-01-04 15:29:00,36.0,25.0,30.05,SW,223,3.0,12.0,64,0.00,,,0.00,meteohub,2013-01-04 20:29:00,
2013-01-04 15:34:00,35.8,24.8,30.05,SW,230,10.0,12.0,64,0.00,,,0.00,meteohub,2013-01-04 20:34:00,
2013-01-04 15:39:00,35.8,24.8,30.05,WSW,257,8.0,12.0,64,0.00,,,0.00,meteohub,2013-01-04 20:39:00,
2013-01-04 15:44:00,35.8,24.8,30.06,SW,227,5.0,11.0,64,0.00,,,0.00,meteohub,2013-01-04 20:44:00,
2013-01-04 15:49:00,35.8,24.8,30.06,SSW,210,7.0,11.0,64,0.00,,,0.00,meteohub,2013-01-04 20:49:00,
2013-01-04 15:54:00,35.6,24.6,30.06,WSW,256,7.0,11.0,64,0.00,,,0.00,meteohub,2013-01-04 20:54:00,
2013-01-04 16:00:00,35.4,24.4,30.06,West,274,6.0,10.0,64,0.00,,,0.00,meteohub,2013-01-04 21:00:00,
2013-01-04 16:05:00,35.4,24.4,30.05,WSW,253,3.0,10.0,64,0.00,,,0.00,meteohub,2013-01-04 21:05:00,
2013-01-04 16:10:00,35.4,24.4,30.05,West,267,6.0,12.0,64,0.00,,,0.00,meteohub,2013-01-04 21:10:00,
2013-01-04 16:15:00,35.2,24.3,30.05,West,264,2.0,12.0,64,0.00,,,0.00,meteohub,2013-01-04 21:15:00,
2013-01-04 16:20:00,35.2,24.3,30.05,West,268,5.0,12.0,64,0.00,,,0.00,meteohub,2013-01-04 21:20:00,
2013-01-04 16:25:00,35.1,24.1,30.05,WNW,288,6.0,11.0,64,0.00,,,0.00,meteohub,2013-01-04 21:25:00,
2013-01-04 16:30:00,34.9,24.3,30.05,West,268,2.0,9.0,65,0.00,,,0.00,meteohub,2013-01-04 21:30:00,
2013-01-04 16:35:00,34.9,24.3,30.06,West,263,5.0,9.0,65,0.00,,,0.00,meteohub,2013-01-04 21:35:00,
2013-01-04 16:40:00,34.7,24.1,30.05,WNW,285,1.0,7.0,65,0.00,,,0.00,meteohub,2013-01-04 21:40:00,
2013-01-04 16:45:00,34.5,23.9,30.05,WNW,288,7.0,7.0,65,0.00,,,0.00,meteohub,2013-01-04 21:45:00,
2013-01-04 16:50:00,34.7,24.1,30.05,WSW,243,1.0,11.0,65,0.00,,,0.00,meteohub,2013-01-04 21:50:00,
2013-01-04 16:55:00,34.5,23.9,30.05,West,259,2.0,11.0,65,0.00,,,0.00,meteohub,2013-01-04 21:55:00,
2013-01-04 17:00:00,34.3,23.7,30.04,SW,229,2.0,11.0,65,0.00,,,0.00,meteohub,2013-01-04 22:00:00,
2013-01-04 17:05:00,34.3,23.7,30.04,WSW,252,2.0,10.0,65,0.00,,,0.00,meteohub,2013-01-04 22:05:00,
2013-01-04 17:10:00,34.3,23.7,30.04,WSW,242,4.0,10.0,65,0.00,,,0.00,meteohub,2013-01-04 22:10:00,
2013-01-04 17:15:00,34.3,24.1,30.05,SW,235,3.0,9.0,66,0.00,,,0.00,meteohub,2013-01-04 22:15:00,
2013-01-04 17:20:00,34.0,23.9,30.04,West,261,3.0,9.0,66,0.00,,,0.00,meteohub,2013-01-04 22:20:00,
2013-01-04 17:25:00,33.8,24.1,30.04,WSW,253,6.0,8.0,67,0.00,,,0.00,meteohub,2013-01-04 22:25:00,
2013-01-04 17:30:00,34.0,24.3,30.04,West,276,5.0,11.0,67,0.00,,,0.00,meteohub,2013-01-04 22:30:00,
2013-01-04 17:35:00,34.0,24.3,30.04,West,279,4.0,11.0,67,0.00,,,0.00,meteohub,2013-01-04 22:35:00,
2013-01-04 17:40:00,34.0,24.3,30.04,WSW,257,2.0,11.0,67,0.00,,,0.00,meteohub,2013-01-04 22:40:00,
2013-01-04 17:45:00,34.0,24.3,30.04,West,272,4.0,9.0,67,0.00,,,0.00,meteohub,2013-01-04 22:45:00,
2013-01-04 17:50:00,33.8,24.1,30.04,WSW,247,1.0,7.0,67,0.00,,,0.00,meteohub,2013-01-04 22:50:00,
2013-01-04 17:55:00,33.6,23.9,30.05,West,267,2.0,6.0,67,0.00,,,0.00,meteohub,2013-01-04 22:55:00,
2013-01-04 18:00:00,33.4,23.7,30.05,West,279,6.0,7.0,67,0.00,,,0.00,meteohub,2013-01-04 23:00:00,
2013-01-04 18:05:00,33.6,23.9,30.05,West,268,4.0,7.0,67,0.00,,,0.00,meteohub,2013-01-04 23:05:00,
2013-01-04 18:10:00,33.6,23.9,30.05,WSW,252,4.0,9.0,67,0.00,,,0.00,meteohub,2013-01-04 23:10:00,
2013-01-04 18:15:00,33.4,23.7,30.06,West,262,4.0,9.0,67,0.00,,,0.00,meteohub,2013-01-04 23:15:00,
2013-01-04 18:20:00,33.4,24.1,30.06,West,270,3.0,9.0,68,0.00,,,0.00,meteohub,2013-01-04 23:20:00,
2013-01-04 18:25:00,33.4,24.1,30.05,West,278,4.0,7.0,68,0.00,,,0.00,meteohub,2013-01-04 23:25:00,
2013-01-04 18:30:00,33.3,23.9,30.05,WSW,255,5.0,7.0,68,0.00,,,0.00,meteohub,2013-01-04 23:30:00,
2013-01-04 18:35:00,33.3,23.9,30.06,West,279,5.0,10.0,68,0.00,,,0.00,meteohub,2013-01-04 23:35:00,
2013-01-04 18:40:00,33.4,24.1,30.05,West,281,4.0,10.0,68,0.00,,,0.00,meteohub,2013-01-04 23:40:00,
2013-01-04 18:45:00,33.4,24.1,30.06,West,281,5.0,10.0,68,0.00,,,0.00,meteohub,2013-01-04 23:45:00,
2013-01-04 18:50:00,33.3,23.9,30.06,West,277,5.0,9.0,68,0.00,,,0.00,meteohub,2013-01-04 23:50:00,
2013-01-04 18:55:00,33.1,24.1,30.06,West,263,6.0,8.0,69,0.00,,,0.00,meteohub,2013-01-04 23:55:00,
2013-01-04 19:00:00,33.1,24.1,30.06,West,263,8.0,8.0,69,0.00,,,0.00,meteohub,2013-01-05 00:00:00,
2013-01-04 19:05:00,33.1,24.1,30.06,West,259,5.0,9.0,69,0.00,,,0.00,meteohub,2013-01-05 00:05:00,
2013-01-04 19:10:00,32.9,23.9,30.06,West,270,8.0,9.0,69,0.00,,,0.00,meteohub,2013-01-05 00:10:00,
2013-01-04 19:15:00,32.9,23.9,30.06,West,273,2.0,9.0,69,0.00,,,0.00,meteohub,2013-01-05 00:15:00,
2013-01-04 19:20:00,32.9,23.9,30.06,West,260,7.0,9.0,69,0.00,,,0.00,meteohub,2013-01-05 00:20:00,
2013-01-04 19:25:00,32.9,23.9,30.06,West,268,4.0,9.0,69,0.00,,,0.00,meteohub,2013-01-05 00:25:00,
2013-01-04 19:30:00,32.7,24.1,30.07,West,279,7.0,9.0,70,0.00,,,0.00,meteohub,2013-01-05 00:30:00,
2013-01-04 19:35:00,32.7,23.7,30.06,WSW,245,6.0,9.0,69,0.00,,,0.00,meteohub,2013-01-05 00:35:00,
2013-01-04 19:40:00,32.7,24.1,30.07,WSW,246,1.0,10.0,70,0.00,,,0.00,meteohub,2013-01-05 00:40:00,
2013-01-04 19:45:00,32.5,23.9,30.07,West,274,4.0,10.0,70,0.00,,,0.00,meteohub,2013-01-05 00:45:00,
2013-01-04 19:50:00,32.5,23.9,30.07,West,267,8.0,12.0,70,0.00,,,0.00,meteohub,2013-01-05 00:50:00,
2013-01-04 19:55:00,32.5,23.9,30.06,WNW,284,4.0,13.0,70,0.00,,,0.00,meteohub,2013-01-05 00:55:00,
2013-01-04 20:00:00,32.5,23.5,30.06,West,277,6.0,13.0,69,0.00,,,0.00,meteohub,2013-01-05 01:00:00,
2013-01-04 20:05:00,32.5,23.9,30.06,West,268,5.0,13.0,70,0.00,,,0.00,meteohub,2013-01-05 01:05:00,
2013-01-04 20:10:00,32.4,23.7,30.06,West,274,5.0,13.0,70,0.00,,,0.00,meteohub,2013-01-05 01:10:00,
2013-01-04 20:15:00,32.4,23.4,30.06,West,273,8.0,10.0,69,0.00,,,0.00,meteohub,2013-01-05 01:15:00,
2013-01-04 20:20:00,32.4,23.4,30.06,West,263,5.0,10.0,69,0.00,,,0.00,meteohub,2013-01-05 01:20:00,
2013-01-04 20:25:00,32.4,23.4,30.06,West,260,6.0,10.0,69,0.00,,,0.00,meteohub,2013-01-05 01:25:00,
2013-01-04 20:30:00,32.2,23.2,30.06,West,267,3.0,10.0,69,0.00,,,0.00,meteohub,2013-01-05 01:30:00,
2013-01-04 20:35:00,32.2,23.2,30.06,West,265,4.0,10.0,69,0.00,,,0.00,meteohub,2013-01-05 01:35:00,
2013-01-04 20:40:00,32.2,23.2,30.06,West,272,9.0,12.0,69,0.00,,,0.00,meteohub,2013-01-05 01:40:00,
2013-01-04 20:45:00,32.2,23.2,30.07,West,267,5.0,12.0,69,0.00,,,0.00,meteohub,2013-01-05 01:45:00,
2013-01-04 20:50:00,32.2,23.2,30.07,West,280,2.0,12.0,69,0.00,,,0.00,meteohub,2013-01-05 01:50:00,
2013-01-04 20:55:00,32.2,23.2,30.07,West,277,3.0,10.0,69,0.00,,,0.00,meteohub,2013-01-05 01:55:00,
2013-01-04 21:00:00,32.2,23.2,30.07,West,264,4.0,9.0,69,0.00,,,0.00,meteohub,2013-01-05 02:00:00,
2013-01-04 21:06:00,32.4,23.0,30.07,WSW,252,4.0,8.0,68,0.00,,,0.00,meteohub,2013-01-05 02:06:00,
2013-01-04 21:11:00,32.2,22.8,30.08,WSW,250,4.0,7.0,68,0.00,,,0.00,meteohub,2013-01-05 02:11:00,
2013-01-04 21:16:00,32.4,23.0,30.07,West,268,2.0,7.0,68,0.00,,,0.00,meteohub,2013-01-05 02:16:00,
2013-01-04 21:21:00,32.4,23.0,30.07,WSW,243,3.0,10.0,68,0.00,,,0.00,meteohub,2013-01-05 02:21:00,
2013-01-04 21:26:00,32.4,23.0,30.07,West,273,5.0,10.0,68,0.00,,,0.00,meteohub,2013-01-05 02:26:00,
2013-01-04 21:31:00,32.4,23.0,30.07,WSW,254,4.0,10.0,68,0.00,,,0.00,meteohub,2013-01-05 02:31:00,
2013-01-04 21:36:00,32.4,22.6,30.08,West,273,5.0,9.0,67,0.00,,,0.00,meteohub,2013-01-05 02:36:00,
2013-01-04 21:41:00,32.4,22.6,30.07,West,268,3.0,9.0,67,0.00,,,0.00,meteohub,2013-01-05 02:41:00,
2013-01-04 21:46:00,32.2,22.5,30.08,WSW,252,6.0,8.0,67,0.00,,,0.00,meteohub,2013-01-05 02:46:00,
2013-01-04 21:51:00,32.2,22.5,30.08,West,260,6.0,7.0,67,0.00,,,0.00,meteohub,2013-01-05 02:51:00,
2013-01-04 21:56:00,32.2,22.5,30.08,West,261,5.0,11.0,67,0.00,,,0.00,meteohub,2013-01-05 02:56:00,
2013-01-04 22:01:00,32.2,22.5,30.08,West,279,4.0,11.0,67,0.00,,,0.00,meteohub,2013-01-05 03:01:00,
2013-01-04 22:06:00,32.2,22.5,30.08,West,268,5.0,11.0,67,0.00,,,0.00,meteohub,2013-01-05 03:06:00,
2013-01-04 22:11:00,32.2,22.5,30.08,WSW,241,6.0,11.0,67,0.00,,,0.00,meteohub,2013-01-05 03:11:00,
2013-01-04 22:16:00,32.2,22.1,30.08,WSW,252,4.0,11.0,66,0.00,,,0.00,meteohub,2013-01-05 03:16:00,
2013-01-04 22:21:00,32.2,22.5,30.08,WSW,248,1.0,10.0,67,0.00,,,0.00,meteohub,2013-01-05 03:21:00,
2013-01-04 22:26:00,32.0,22.3,30.08,West,269,6.0,10.0,67,0.00,,,0.00,meteohub,2013-01-05 03:26:00,
2013-01-04 22:31:00,32.0,22.3,30.08,WSW,256,4.0,9.0,67,0.00,,,0.00,meteohub,2013-01-05 03:31:00,
2013-01-04 22:36:00,32.0,22.3,30.09,WSW,246,5.0,9.0,67,0.00,,,0.00,meteohub,2013-01-05 03:36:00,
2013-01-04 22:41:00,32.0,22.3,30.09,WSW,254,5.0,10.0,67,0.00,,,0.00,meteohub,2013-01-05 03:41:00,
2013-01-04 22:46:00,32.0,22.3,30.09,SW,229,6.0,10.0,67,0.00,,,0.00,meteohub,2013-01-05 03:46:00,
2013-01-04 22:51:00,32.0,22.3,30.09,West,263,5.0,10.0,67,0.00,,,0.00,meteohub,2013-01-05 03:51:00,
2013-01-04 22:56:00,32.2,22.5,30.09,West,267,4.0,9.0,67,0.00,,,0.00,meteohub,2013-01-05 03:56:00,
2013-01-04 23:01:00,31.8,22.1,30.09,West,261,5.0,9.0,67,0.00,,,0.00,meteohub,2013-01-05 04:01:00,
2013-01-04 23:06:00,31.8,22.1,30.09,West,259,3.0,9.0,67,0.00,,,0.00,meteohub,2013-01-05 04:06:00,
2013-01-04 23:11:00,31.6,21.9,30.09,West,269,8.0,8.0,67,0.00,,,0.00,meteohub,2013-01-05 04:11:00,
2013-01-04 23:16:00,31.5,22.1,30.09,WSW,253,4.0,8.0,68,0.00,,,0.00,meteohub,2013-01-05 04:16:00,
2013-01-04 23:21:00,31.5,22.1,30.09,West,266,5.0,9.0,68,0.00,,,0.00,meteohub,2013-01-05 04:21:00,
2013-01-04 23:26:00,31.3,22.3,30.09,West,262,7.0,9.0,69,0.00,,,0.00,meteohub,2013-01-05 04:26:00,
2013-01-04 23:31:00,31.1,22.1,30.09,West,276,5.0,9.0,69,0.00,,,0.00,meteohub,2013-01-05 04:31:00,
2013-01-04 23:36:00,31.1,22.1,30.09,West,264,5.0,9.0,69,0.00,,,0.00,meteohub,2013-01-05 04:36:00,
2013-01-04 23:41:00,30.9,21.9,30.09,WNW,288,5.0,9.0,69,0.00,,,0.00,meteohub,2013-01-05 04:41:00,
2013-01-04 23:46:00,30.9,21.9,30.09,WSW,254,3.0,9.0,69,0.00,,,0.00,meteohub,2013-01-05 04:46:00,
2013-01-04 23:51:00,30.9,21.9,30.09,WSW,252,4.0,7.0,69,0.00,,,0.00,meteohub,2013-01-05 04:51:00,
2013-01-04 23:56:00,30.9,21.9,30.09,WSW,241,3.0,7.0,69,0.00,,,0.00,meteohub,2013-01-05 04:56:00,